Year,Month,Day,Hour,Minute,Value (Times are PST for temperature in C)
2014,12,01,15,18,4.80
2014,12,01,15,19,4.80
2014,12,01,15,20,4.80
2014,12,01,15,21,4.70
2014,12,01,15,22,4.70
2014,12,01,15,23,4.70
2014,12,01,15,24,4.70
2014,12,01,15,25,4.70
2014,12,01,15,26,4.70
2014,12,01,15,27,4.70
2014,12,01,15,28,4.70
2014,12,01,15,29,4.60
2014,12,01,15,30,4.70
2014,12,01,15,31,4.70
2014,12,01,15,32,4.60
2014,12,01,15,33,4.60
2014,12,01,15,34,4.60
2014,12,01,15,35,4.60
2014,12,01,15,36,4.50
2014,12,01,15,37,4.50
2014,12,01,15,38,4.50
2014,12,01,15,39,4.50
2014,12,01,15,40,4.40
2014,12,01,15,41,4.40
2014,12,01,15,42,4.40
2014,12,01,15,43,4.40
2014,12,01,15,44,4.40
2014,12,01,15,45,4.40
2014,12,01,15,46,4.40
2014,12,01,15,47,4.40
2014,12,01,15,48,4.40
2014,12,01,15,49,4.40
2014,12,01,15,50,4.40
2014,12,01,15,51,4.40
2014,12,01,15,52,4.40
2014,12,01,15,53,4.40
2014,12,01,15,54,4.30
2014,12,01,15,55,4.30
2014,12,01,15,56,4.30
2014,12,01,15,57,4.30
2014,12,01,15,58,4.30
2014,12,01,15,59,4.30
2014,12,01,16,00,4.20
2014,12,01,16,01,4.20
2014,12,01,16,02,4.20
2014,12,01,16,03,4.20
2014,12,01,16,04,4.20
2014,12,01,16,05,4.20
2014,12,01,16,06,4.10
2014,12,01,16,07,4.10
2014,12,01,16,08,4.10
2014,12,01,16,09,4.10
2014,12,01,16,10,4.00
2014,12,01,16,11,4.00
2014,12,01,16,12,4.00
2014,12,01,16,13,3.90
2014,12,01,16,14,3.90
2014,12,01,16,15,3.90
2014,12,01,16,16,3.80
2014,12,01,16,17,3.80
2014,12,01,16,18,3.80
2014,12,01,16,19,3.70
2014,12,01,16,20,3.70
2014,12,01,16,21,3.70
2014,12,01,16,22,3.60
2014,12,01,16,23,3.60
2014,12,01,16,24,3.60
2014,12,01,16,25,3.50
2014,12,01,16,26,3.50
2014,12,01,16,27,3.50
2014,12,01,16,28,3.50
2014,12,01,16,29,3.50
2014,12,01,16,30,3.50
2014,12,01,16,31,3.40
2014,12,01,16,32,3.40
2014,12,01,16,33,3.40
2014,12,01,16,34,3.40
2014,12,01,16,35,3.40
2014,12,01,16,36,3.30
2014,12,01,16,37,3.30
2014,12,01,16,38,3.30
2014,12,01,16,39,3.30
2014,12,01,16,40,3.30
2014,12,01,16,41,3.30
2014,12,01,16,42,3.30
2014,12,01,16,43,3.30
2014,12,01,16,44,3.30
2014,12,01,16,45,3.30
2014,12,01,16,46,3.30
2014,12,01,16,47,3.30
2014,12,01,16,48,3.30
2014,12,01,16,49,3.30
2014,12,01,16,50,3.20
2014,12,01,16,51,3.20
2014,12,01,16,52,3.20
2014,12,01,16,53,3.20
2014,12,01,16,54,3.20
2014,12,01,16,55,3.20
2014,12,01,16,56,3.20
2014,12,01,16,57,3.20
2014,12,01,16,58,3.20
2014,12,01,16,59,3.20
2014,12,01,17,00,3.20
2014,12,01,17,01,3.20
2014,12,01,17,02,3.30
2014,12,01,17,03,3.30
2014,12,01,17,04,3.30
2014,12,01,17,05,3.30
2014,12,01,17,06,3.30
2014,12,01,17,07,3.30
2014,12,01,17,08,3.30
2014,12,01,17,09,3.30
2014,12,01,17,10,3.30
2014,12,01,17,11,3.30
2014,12,01,17,12,3.30
2014,12,01,17,13,3.30
2014,12,01,17,14,3.30
2014,12,01,17,15,3.30
2014,12,01,17,16,3.30
2014,12,01,17,17,3.30
2014,12,01,17,18,3.30
2014,12,01,17,19,3.30
2014,12,01,17,20,3.30
2014,12,01,17,21,3.30
2014,12,01,17,22,3.40
2014,12,01,17,23,3.40
2014,12,01,17,24,3.40
2014,12,01,17,25,3.40
2014,12,01,17,26,3.50
2014,12,01,17,27,3.50
2014,12,01,17,28,3.50
2014,12,01,17,29,3.50
2014,12,01,17,30,3.60
2014,12,01,17,31,3.60
2014,12,01,17,32,3.60
2014,12,01,17,33,3.60
2014,12,01,17,34,3.60
2014,12,01,17,35,3.60
2014,12,01,17,36,3.60
2014,12,01,17,37,3.60
2014,12,01,17,38,3.60
2014,12,01,17,39,3.60
2014,12,01,17,40,3.60
2014,12,01,17,41,3.70
2014,12,01,17,42,3.70
2014,12,01,17,43,3.70
2014,12,01,17,44,3.70
2014,12,01,17,45,3.70
2014,12,01,17,46,3.70
2014,12,01,17,47,3.70
2014,12,01,17,48,3.70
2014,12,01,17,49,3.70
2014,12,01,17,50,3.70
2014,12,01,17,51,3.70
2014,12,01,17,52,3.60
2014,12,01,17,53,3.60
2014,12,01,17,54,3.60
2014,12,01,17,55,3.60
2014,12,01,17,56,3.60
2014,12,01,17,57,3.60
2014,12,01,17,58,3.60
2014,12,01,17,59,3.60
2014,12,01,18,00,3.60
2014,12,01,18,01,3.50
2014,12,01,18,02,3.50
2014,12,01,18,03,3.50
2014,12,01,18,04,3.40
2014,12,01,18,05,3.40
2014,12,01,18,06,3.40
2014,12,01,18,07,3.40
2014,12,01,18,08,3.40
2014,12,01,18,09,3.40
2014,12,01,18,10,3.40
2014,12,01,18,11,3.40
2014,12,01,18,12,3.30
2014,12,01,18,13,3.30
2014,12,01,18,14,3.30
2014,12,01,18,15,3.30
2014,12,01,18,16,3.30
2014,12,01,18,17,3.30
2014,12,01,18,18,3.30
2014,12,01,18,19,3.20
2014,12,01,18,20,3.20
2014,12,01,18,21,3.20
2014,12,01,18,22,3.20
2014,12,01,18,23,3.20
2014,12,01,18,24,3.20
2014,12,01,18,25,3.20
2014,12,01,18,26,3.20
2014,12,01,18,27,3.10
2014,12,01,18,28,3.10
2014,12,01,18,29,3.10
2014,12,01,18,30,3.10
2014,12,01,18,31,3.10
2014,12,01,18,32,3.10
2014,12,01,18,33,3.10
2014,12,01,18,34,3.10
2014,12,01,18,35,3.10
2014,12,01,18,36,3.10
2014,12,01,18,37,3.10
2014,12,01,18,38,3.10
2014,12,01,18,39,3.10
2014,12,01,18,40,3.00
2014,12,01,18,41,3.00
2014,12,01,18,42,3.00
2014,12,01,18,43,3.00
2014,12,01,18,44,3.00
2014,12,01,18,45,2.90
2014,12,01,18,46,2.90
2014,12,01,18,47,2.90
2014,12,01,18,48,2.90
2014,12,01,18,49,2.80
2014,12,01,18,50,2.80
2014,12,01,18,51,2.80
2014,12,01,18,52,2.80
2014,12,01,18,53,2.70
2014,12,01,18,54,2.70
2014,12,01,18,55,2.70
2014,12,01,18,56,2.70
2014,12,01,18,57,2.60
2014,12,01,18,58,2.60
2014,12,01,18,59,2.60
2014,12,01,19,00,2.50
2014,12,01,19,01,2.50
2014,12,01,19,02,2.50
2014,12,01,19,03,2.50
2014,12,01,19,04,2.50
2014,12,01,19,05,2.50
2014,12,01,19,06,2.40
2014,12,01,19,07,2.40
2014,12,01,19,08,2.40
2014,12,01,19,09,2.40
2014,12,01,19,10,2.40
2014,12,01,19,11,2.40
2014,12,01,19,12,2.40
2014,12,01,19,13,2.30
2014,12,01,19,14,2.30
2014,12,01,19,15,2.30
2014,12,01,19,16,2.30
2014,12,01,19,17,2.30
2014,12,01,19,18,2.30
2014,12,01,19,19,2.30
2014,12,01,19,20,2.30
2014,12,01,19,21,2.30
2014,12,01,19,22,2.30
2014,12,01,19,23,2.30
2014,12,01,19,24,2.30
2014,12,01,19,25,2.30
2014,12,01,19,26,2.20
2014,12,01,19,27,2.20
2014,12,01,19,28,2.20
2014,12,01,19,29,2.20
2014,12,01,19,30,2.20
2014,12,01,19,31,2.20
2014,12,01,19,32,2.20
2014,12,01,19,33,2.20
2014,12,01,19,34,2.20
2014,12,01,19,35,2.20
2014,12,01,19,36,2.20
2014,12,01,19,37,2.20
2014,12,01,19,38,2.20
2014,12,01,19,39,2.20
2014,12,01,19,40,2.20
2014,12,01,19,41,2.20
2014,12,01,19,42,2.20
2014,12,01,19,43,2.20
2014,12,01,19,44,2.10
2014,12,01,19,45,2.10
2014,12,01,19,46,2.10
2014,12,01,19,47,2.10
2014,12,01,19,48,2.10
2014,12,01,19,49,2.10
2014,12,01,19,50,2.10
2014,12,01,19,51,2.10
2014,12,01,19,52,2.10
2014,12,01,19,53,2.10
2014,12,01,19,54,2.10
2014,12,01,19,55,2.10
2014,12,01,19,56,2.10
2014,12,01,19,57,2.10
2014,12,01,19,58,2.10
2014,12,01,19,59,2.10
2014,12,01,20,00,2.10
2014,12,01,20,01,2.10
2014,12,01,20,02,2.10
2014,12,01,20,03,2.10
2014,12,01,20,04,2.10
2014,12,01,20,05,2.10
2014,12,01,20,06,2.10
2014,12,01,20,07,2.10
2014,12,01,20,08,2.10
2014,12,01,20,09,2.10
2014,12,01,20,10,2.10
2014,12,01,20,11,2.10
2014,12,01,20,12,2.20
2014,12,01,20,13,2.20
2014,12,01,20,14,2.20
2014,12,01,20,15,2.20
2014,12,01,20,16,2.20
2014,12,01,20,17,2.20
2014,12,01,20,18,2.10
2014,12,01,20,19,2.10
2014,12,01,20,20,2.10
2014,12,01,20,21,2.10
2014,12,01,20,22,2.10
2014,12,01,20,23,2.10
2014,12,01,20,24,2.10
2014,12,01,20,25,2.10
2014,12,01,20,26,2.10
2014,12,01,20,27,2.10
2014,12,01,20,28,2.10
2014,12,01,20,29,2.10
2014,12,01,20,30,2.10
2014,12,01,20,31,2.10
2014,12,01,20,32,2.10
2014,12,01,20,33,2.20
2014,12,01,20,34,2.20
2014,12,01,20,35,2.20
2014,12,01,20,36,2.20
2014,12,01,20,37,2.20
2014,12,01,20,38,2.20
2014,12,01,20,39,2.20
2014,12,01,20,40,2.20
2014,12,01,20,41,2.20
2014,12,01,20,42,2.20
2014,12,01,20,43,2.20
2014,12,01,20,44,2.20
2014,12,01,20,45,2.20
2014,12,01,20,46,2.20
2014,12,01,20,47,2.20
2014,12,01,20,48,2.20
2014,12,01,20,49,2.20
2014,12,01,20,50,2.20
2014,12,01,20,51,2.20
2014,12,01,20,52,2.20
2014,12,01,20,53,2.20
2014,12,01,20,54,2.20
2014,12,01,20,55,2.20
2014,12,01,20,56,2.20
2014,12,01,20,57,2.20
2014,12,01,20,58,2.20
2014,12,01,20,59,2.20
2014,12,01,21,00,2.20
2014,12,01,21,01,2.20
2014,12,01,21,02,2.20
2014,12,01,21,03,2.20
2014,12,01,21,04,2.20
2014,12,01,21,05,2.20
2014,12,01,21,06,2.20
2014,12,01,21,07,2.20
2014,12,01,21,08,2.20
2014,12,01,21,09,2.20
2014,12,01,21,10,2.20
2014,12,01,21,11,2.20
2014,12,01,21,12,2.20
2014,12,01,21,13,2.20
2014,12,01,21,14,2.20
2014,12,01,21,15,2.20
2014,12,01,21,16,2.20
2014,12,01,21,17,2.20
2014,12,01,21,18,2.20
2014,12,01,21,19,2.20
2014,12,01,21,20,2.20
2014,12,01,21,21,2.20
2014,12,01,21,22,2.20
2014,12,01,21,23,2.20
2014,12,01,21,24,2.20
2014,12,01,21,25,2.20
2014,12,01,21,26,2.20
2014,12,01,21,27,2.10
2014,12,01,21,28,2.10
2014,12,01,21,29,2.10
2014,12,01,21,30,2.10
2014,12,01,21,31,2.10
2014,12,01,21,32,2.10
2014,12,01,21,33,2.10
2014,12,01,21,34,2.00
2014,12,01,21,35,2.00
2014,12,01,21,36,2.00
2014,12,01,21,37,2.00
2014,12,01,21,38,2.00
2014,12,01,21,39,1.90
2014,12,01,21,40,1.90
2014,12,01,21,41,1.90
2014,12,01,21,42,1.90
2014,12,01,21,43,1.90
2014,12,01,21,44,1.90
2014,12,01,21,45,1.90
2014,12,01,21,46,1.90
2014,12,01,21,47,1.90
2014,12,01,21,48,1.90
2014,12,01,21,49,1.90
2014,12,01,21,50,1.90
2014,12,01,21,51,1.90
2014,12,01,21,52,1.90
2014,12,01,21,53,1.90
2014,12,01,21,54,1.90
2014,12,01,21,55,1.90
2014,12,01,21,56,1.90
2014,12,01,21,57,1.90
2014,12,01,21,58,1.90
2014,12,01,21,59,1.90
2014,12,01,22,00,1.90
2014,12,01,22,01,1.90
2014,12,01,22,02,1.90
2014,12,01,22,03,1.90
2014,12,01,22,04,1.90
2014,12,01,22,05,1.90
2014,12,01,22,06,1.90
2014,12,01,22,07,1.90
2014,12,01,22,08,1.90
2014,12,01,22,09,1.90
2014,12,01,22,10,1.90
2014,12,01,22,11,1.80
2014,12,01,22,12,1.80
2014,12,01,22,13,1.80
2014,12,01,22,14,1.80
2014,12,01,22,15,1.80
2014,12,01,22,16,1.80
2014,12,01,22,17,1.80
2014,12,01,22,18,1.80
2014,12,01,22,19,1.80
2014,12,01,22,20,1.80
2014,12,01,22,21,1.80
2014,12,01,22,22,1.80
2014,12,01,22,23,1.80
2014,12,01,22,24,1.80
2014,12,01,22,25,1.80
2014,12,01,22,26,1.80
2014,12,01,22,27,1.80
2014,12,01,22,28,1.80
2014,12,01,22,29,1.80
2014,12,01,22,30,1.80
2014,12,01,22,31,1.80
2014,12,01,22,32,1.80
2014,12,01,22,33,1.80
2014,12,01,22,34,1.80
2014,12,01,22,35,1.80
2014,12,01,22,36,1.80
2014,12,01,22,37,1.80
2014,12,01,22,38,1.80
2014,12,01,22,39,1.80
2014,12,01,22,40,1.80
2014,12,01,22,41,1.80
2014,12,01,22,42,1.80
2014,12,01,22,43,1.80
2014,12,01,22,44,1.80
2014,12,01,22,45,1.80
2014,12,01,22,46,1.70
2014,12,01,22,47,1.70
2014,12,01,22,48,1.70
2014,12,01,22,49,1.70
2014,12,01,22,50,1.70
2014,12,01,22,51,1.70
2014,12,01,22,52,1.70
2014,12,01,22,53,1.70
2014,12,01,22,54,1.70
2014,12,01,22,55,1.80
2014,12,01,22,56,1.80
2014,12,01,22,57,1.80
2014,12,01,22,58,1.80
2014,12,01,22,59,1.80
2014,12,01,23,00,1.80
2014,12,01,23,01,1.80
2014,12,01,23,02,1.80
2014,12,01,23,03,1.80
2014,12,01,23,04,1.80
2014,12,01,23,05,1.80
2014,12,01,23,06,1.80
2014,12,01,23,07,1.80
2014,12,01,23,08,1.80
2014,12,01,23,09,1.80
2014,12,01,23,10,1.80
2014,12,01,23,11,1.80
2014,12,01,23,12,1.80
2014,12,01,23,13,1.80
2014,12,01,23,14,1.80
2014,12,01,23,15,1.80
2014,12,01,23,16,1.80
2014,12,01,23,17,1.90
2014,12,01,23,18,1.90
2014,12,01,23,19,1.90
2014,12,01,23,20,1.90
2014,12,01,23,21,1.90
2014,12,01,23,22,1.90
2014,12,01,23,23,1.90
2014,12,01,23,24,1.90
2014,12,01,23,25,1.90
2014,12,01,23,26,1.90
2014,12,01,23,27,1.90
2014,12,01,23,28,1.90
2014,12,01,23,29,1.90
2014,12,01,23,30,1.90
2014,12,01,23,31,1.90
2014,12,01,23,32,1.80
2014,12,01,23,33,1.80
2014,12,01,23,34,1.80
2014,12,01,23,35,1.80
2014,12,01,23,36,1.80
2014,12,01,23,37,1.80
2014,12,01,23,38,1.80
2014,12,01,23,39,1.80
2014,12,01,23,40,1.80
2014,12,01,23,41,1.80
2014,12,01,23,42,1.80
2014,12,01,23,43,1.80
2014,12,01,23,44,1.80
2014,12,01,23,45,1.80
2014,12,01,23,46,1.80
2014,12,01,23,47,1.80
2014,12,01,23,48,1.80
2014,12,01,23,49,1.80
2014,12,01,23,50,1.80
2014,12,01,23,51,1.80
2014,12,01,23,52,1.70
2014,12,01,23,53,1.70
2014,12,01,23,54,1.70
2014,12,01,23,55,1.70
2014,12,01,23,56,1.70
2014,12,01,23,57,1.70
2014,12,01,23,58,1.70
2014,12,01,23,59,1.70
